[[{"header":{"parameterUnit":"m.s-1","parameterCategory":1,"la1":30.2991,"la2":30.254,"lo1":-89.0895,"lo2":-89.0444,"dy":0.0017,"dx":0.0017,"nx":28,"ny":28,"refTime":"2025-06-10T21:00:00:Z","depth":0,"parameterNumber":2,"parameterNumberName":"U-component_of_WINDS"},"data":[0,0,0,0,0,0,0,0,0,0,0,0,0,0,0,0,0,0,0,0,0,0,0,0,0,0,0,0,0,0,0,0,0,0,0,0,0,0,0,0,0,0,0,0,0,0,0,0,0,0,0,0,0,0,0,0,0,0,3.2466,3.2466,0,3.2467,3.2467,3.2467,3.245,3.2449,3.2449,3.2448,3.2448,3.2449,3.2449,0,0,0,0,0,0,0,0,0,0,0,0,0,3.245,3.245,3.2466,3.2466,3.2466,3.2467,3.2467,3.2467,3.245,3.2449,3.2449,3.2448,3.2448,3.2449,3.2449,0,0,0,0,0,0,0,0,0,0,0,0,0,3.2454,3.2451,3.2466,3.2457,3.2457,3.2466,3.2467,3.2467,3.245,3.2449,3.2448,3.2448,3.2448,3.2449,3.2449,3.2467,0,0,3.2451,3.2452,0,0,0,0,0,0,0,0,3.2454,3.2455,3.2459,3.2458,3.2457,3.2457,3.2461,3.2467,3.245,3.2452,3.2448,3.2448,3.2452,3.2452,3.2454,3.2467,3.2467,3.2451,3.2452,3.2452,3.2452,0,0,0,0,0,0,0,3.2454,3.2455,3.2466,3.2459,3.2458,3.2454,3.2454,3.2462,3.2456,3.2452,3.2451,3.2451,3.2451,3.2453,3.2454,3.2467,3.2451,3.2452,3.2452,3.2453,3.2496,3.2497,0,0,0,0,0,0,3.2455,3.2455,3.2466,3.2466,3.2454,3.2455,3.2455,3.2458,3.2456,3.2455,3.2452,3.2451,3.2452,3.2453,3.2454,3.2475,3.2452,3.2453,3.2453,3.2496,3.2497,3.2497,0,0,0,0,0,0,3.2454,3.2456,3.2466,3.246,3.2461,3.2456,3.246,3.2458,3.246,3.2456,3.2454,3.2455,3.2452,3.2453,3.2464,3.2474,3.2453,3.2453,3.2495,3.2496,3.2497,3.2517,0,0,0,0,0,0,3.2454,3.2456,3.2462,3.246,3.2461,3.2476,3.246,3.2459,3.2461,3.246,3.2458,3.2457,3.2451,3.2463,3.2465,3.2475,3.2454,3.2494,3.2495,3.2497,3.2515,3.2518,3.2521,0,0,0,0,0,3.2454,3.2467,3.2462,3.2464,3.2469,3.2477,3.2477,3.2471,3.2462,3.2469,3.2466,3.2457,3.2474,3.2465,3.2466,3.2477,3.2493,3.2495,3.2496,3.2514,3.2518,3.2521,0,0,0,0,0,0,3.2469,3.2466,3.2461,3.2475,3.2476,3.2474,3.2481,3.2475,3.2478,3.2477,3.2468,3.2468,3.2481,3.248,3.247,3.2495,3.2482,3.2484,3.2494,3.2498,3.2501,3.2501,3.2454,0,0,0,0,0,3.2474,3.2481,3.2478,3.249,3.2491,3.2487,3.2489,3.2485,3.2486,3.2486,3.2484,3.2485,3.2491,3.2495,3.2499,3.2515,3.2515,3.2524,3.2527,3.2529,3.2531,3.2541,3.2544,3.2503,3.2503,3.2503,0,0,3.2484,3.2484,3.2488,3.2493,3.2494,3.2501,3.2487,3.2495,3.25,3.2487,3.2498,3.2497,3.2498,3.2512,3.2518,3.2512,3.2543,3.2532,3.2534,3.2534,3.2543,3.2547,3.255,3.2504,3.2504,3.2504,0,0,3.2506,3.2507,3.2517,3.2519,3.252,3.2517,3.252,3.2519,3.2519,3.253,3.2521,3.2527,3.2537,3.2538,3.254,3.2566,3.2558,3.2568,3.2584,3.2593,3.2596,3.2599,3.2609,3.2612,3.257,3.257,3.257,0,3.2519,3.2529,3.2523,3.2532,3.2535,3.2525,3.2536,3.2538,3.2541,3.2543,3.2536,3.2549,3.2549,3.2564,3.2571,3.2573,3.2576,3.2567,3.2596,3.2599,3.2602,3.2611,3.2614,3.2571,3.2571,3.2571,3.2571,0,3.2544,3.2552,3.256,3.2564,3.2569,3.2578,3.2575,3.258,3.2575,3.2574,3.2586,3.2586,3.2591,3.2595,3.259,3.261,3.2606,3.2598,3.2585,3.2607,3.2615,3.2619,3.2573,3.2572,3.2572,3.2572,0,0,3.2574,3.2577,3.258,3.2582,3.2584,3.259,3.2601,3.2607,3.2611,3.2614,3.2623,3.2633,3.2626,3.2629,3.2624,3.2633,3.2654,3.2624,3.2624,3.2629,3.2677,3.2682,3.2686,3.265,3.265,3.2651,3.2677,0,3.2595,3.2613,3.2609,3.2626,3.2634,3.2626,3.2635,3.2638,3.2637,3.2644,3.2643,3.265,3.2641,3.2643,3.2651,3.265,3.2663,3.2648,3.2658,3.2658,3.2657,3.269,3.2695,3.2719,3.268,3.268,3.2681,0,3.2622,3.2627,3.2646,3.2649,3.2652,3.266,3.2666,3.2672,3.2676,3.2675,3.2679,3.2674,3.2685,3.2673,3.2689,3.2678,3.2683,3.2683,3.2684,3.2684,3.267,3.269,3.2727,3.273,3.2686,3.2685,3.2685,0,3.2642,3.2654,3.2666,3.2669,3.2672,3.2679,3.268,3.2684,3.2688,3.2694,3.2697,3.2703,3.2707,3.2713,3.271,3.2701,3.2726,3.2714,3.2726,3.2726,3.273,3.2729,3.2767,3.2734,3.2734,3.2734,3.2734,0,3.2666,3.2677,3.2676,3.2683,3.2696,3.2693,3.2706,3.2707,3.2711,3.2719,3.2713,3.2721,3.2717,3.2725,3.2723,3.2736,3.2738,3.2738,3.2737,3.2738,3.2738,3.2739,3.2737,3.2735,3.2735,3.2735,3.2734,0,3.2689,3.2688,3.2702,3.2705,3.2706,3.2716,3.2719,3.2727,3.2727,3.2737,3.274,3.2739,3.2749,3.2747,3.2757,3.2756,3.2773,3.277,3.2771,3.277,3.2782,3.2781,3.2821,3.2827,3.2791,3.2792,3.2792,0,3.2704,3.2712,3.2717,3.2723,3.2725,3.2734,3.2739,3.2737,3.2743,3.2749,3.2756,3.2765,3.2772,3.2787,3.2788,3.2796,3.2793,3.2807,3.2794,3.2795,3.2793,3.2792,3.2793,3.2809,3.2809,3.281,3.281,0,3.273,3.273,3.2737,3.2746,3.2752,3.2758,3.2764,3.2769,3.2767,3.2774,3.2784,3.2789,3.2801,3.281,3.2818,3.282,3.2815,3.2814,3.2818,3.2818,3.2818,3.2818,3.2777,3.2813,3.2813,3.2812,3.2812,3.2812,3.2749,3.2757,3.2762,3.2772,3.2776,3.2782,3.279,3.2792,3.28,3.2809,3.2808,3.2819,3.2824,3.2835,3.2838,3.2847,3.2842,3.2847,3.2848,3.2849,3.285,3.2818,3.2849,3.2849,3.2849,3.2849,3.2848,0,3.2775,3.2779,3.2787,3.2796,3.2804,3.28,3.2806,3.2813,3.2823,3.2829,3.2836,3.2848,3.2858,3.286,3.287,3.2877,3.2875,3.2879,3.2878,3.2879,3.2854,3.285,3.2881,3.2881,3.2881,3.2881,3.2881,3.2881,3.2789,3.2803,3.2804,3.282,3.2824,3.2835,3.2839,3.2845,3.285,3.2864,3.2872,3.2874,3.2879,3.2889,3.2898,3.2899,3.2902,3.2907,3.2907,3.2883,3.288,3.2877,3.2873,3.2908,3.2908,3.2931,3.2931,3.2931]},{"header":{"parameterUnit":"m.s-1","parameterCategory":1,"la1":30.2991,"la2":30.254,"lo1":-89.0895,"lo2":-89.0444,"dy":0.0017,"dx":0.0017,"nx":28,"ny":28,"refTime":"2025-06-10T21:00:00:Z","depth":0,"parameterNumber":3,"parameterNumberName":"V-component_of_WINDS"},"data":[0,0,0,0,0,0,0,0,0,0,0,0,0,0,0,0,0,0,0,0,0,0,0,0,0,0,0,0,0,0,0,0,0,0,0,0,0,0,0,0,0,0,0,0,0,0,0,0,0,0,0,0,0,0,0,0,0,0,-0.0622,-0.0622,0,-0.0656,-0.0656,-0.0657,-0.0623,-0.0622,-0.062,-0.0619,-0.0662,-0.0664,-0.0667,0,0,0,0,0,0,0,0,0,0,0,0,0,-0.0536,-0.0538,-0.0622,-0.0622,-0.0623,-0.0656,-0.0656,-0.0657,-0.0623,-0.0621,-0.062,-0.0618,-0.0661,-0.0664,-0.0667,0,0,0,0,0,0,0,0,0,0,0,0,0,-0.0573,-0.0539,-0.0622,-0.061,-0.0609,-0.0656,-0.0656,-0.0657,-0.0623,-0.0621,-0.0619,-0.0618,-0.066,-0.0664,-0.0667,-0.073,0,0,-0.0679,-0.068,0,0,0,0,0,0,0,0,-0.0571,-0.0576,-0.0611,-0.0611,-0.061,-0.0633,-0.0642,-0.0682,-0.0624,-0.0618,-0.0619,-0.0617,-0.0655,-0.0659,-0.067,-0.0732,-0.0734,-0.0679,-0.0681,-0.0683,-0.0684,0,0,0,0,0,0,0,-0.0568,-0.0574,-0.0635,-0.0612,-0.0611,-0.0605,-0.0608,-0.0649,-0.0648,-0.0619,-0.0616,-0.062,-0.0654,-0.0666,-0.067,-0.0735,-0.0679,-0.0682,-0.0684,-0.0686,-0.0854,-0.0856,0,0,0,0,0,0,-0.0566,-0.0572,-0.0634,-0.0636,-0.0584,-0.0609,-0.0612,-0.0628,-0.0647,-0.0648,-0.0622,-0.0618,-0.0661,-0.0666,-0.0672,-0.0748,-0.0683,-0.0686,-0.0688,-0.0851,-0.0854,-0.0857,0,0,0,0,0,0,-0.0564,-0.0572,-0.0633,-0.0604,-0.0611,-0.0612,-0.063,-0.0629,-0.0641,-0.0649,-0.065,-0.0634,-0.066,-0.0667,-0.0716,-0.0749,-0.0688,-0.0691,-0.0849,-0.0852,-0.0855,-0.09,0,0,0,0,0,0,-0.0562,-0.0571,-0.0593,-0.0604,-0.0613,-0.0674,-0.0632,-0.0632,-0.0647,-0.0643,-0.0661,-0.0662,-0.0659,-0.0711,-0.072,-0.0753,-0.0694,-0.0846,-0.085,-0.0854,-0.0896,-0.0905,-0.0913,0,0,0,0,0,-0.0559,-0.0606,-0.0594,-0.0602,-0.0639,-0.0676,-0.0681,-0.0673,-0.065,-0.0673,-0.0678,-0.0662,-0.0744,-0.0716,-0.0726,-0.0761,-0.0844,-0.0849,-0.0854,-0.0892,-0.0903,-0.0912,0,0,0,0,0,0,-0.0601,-0.0607,-0.0594,-0.0645,-0.066,-0.067,-0.0699,-0.0685,-0.0709,-0.0704,-0.0697,-0.0701,-0.0753,-0.0762,-0.0731,-0.0824,-0.079,-0.0798,-0.0816,-0.0827,-0.0835,-0.0832,-0.0697,0,0,0,0,0,-0.0615,-0.0641,-0.0647,-0.0692,-0.0699,-0.0698,-0.0714,-0.0706,-0.0723,-0.0729,-0.0738,-0.0757,-0.0787,-0.0807,-0.0835,-0.0897,-0.0902,-0.0926,-0.0934,-0.0941,-0.0948,-0.0984,-0.0995,-0.0874,-0.0874,-0.0873,0,0,-0.0647,-0.0654,-0.0671,-0.07,-0.0711,-0.0741,-0.0704,-0.0737,-0.076,-0.0735,-0.0782,-0.0789,-0.081,-0.0866,-0.0891,-0.0875,-0.0983,-0.0948,-0.0953,-0.0956,-0.099,-0.1002,-0.1012,-0.0877,-0.0876,-0.0876,0,0,-0.072,-0.0727,-0.0765,-0.0776,-0.0792,-0.0791,-0.08,-0.0813,-0.0816,-0.0862,-0.0844,-0.0874,-0.0925,-0.0941,-0.0956,-0.1036,-0.1023,-0.1046,-0.109,-0.1124,-0.1134,-0.1143,-0.1173,-0.1184,-0.1052,-0.1052,-0.1053,0,-0.0758,-0.08,-0.0788,-0.0822,-0.0837,-0.0813,-0.0854,-0.0867,-0.0892,-0.0904,-0.0884,-0.0949,-0.0961,-0.1022,-0.1041,-0.1054,-0.1067,-0.1044,-0.1133,-0.1142,-0.1149,-0.1179,-0.119,-0.1055,-0.1055,-0.1055,-0.1054,0,-0.0847,-0.0877,-0.0907,-0.0929,-0.0947,-0.0985,-0.0981,-0.1002,-0.0993,-0.0995,-0.1045,-0.1058,-0.1089,-0.1103,-0.1096,-0.1163,-0.1153,-0.1133,-0.11,-0.1164,-0.1191,-0.1202,-0.1059,-0.1058,-0.1057,-0.1057,0,0,-0.0948,-0.0962,-0.0974,-0.0984,-0.1,-0.1025,-0.1063,-0.1091,-0.1109,-0.1128,-0.1162,-0.1206,-0.1188,-0.1205,-0.12,-0.1231,-0.1296,-0.1208,-0.1208,-0.1225,-0.1374,-0.1389,-0.1402,-0.1287,-0.1289,-0.129,-0.1373,0,-0.1023,-0.1085,-0.1076,-0.1138,-0.1167,-0.1145,-0.1179,-0.1194,-0.1197,-0.1225,-0.123,-0.1262,-0.1235,-0.1245,-0.1274,-0.1282,-0.1326,-0.1276,-0.1321,-0.1323,-0.1318,-0.1416,-0.1433,-0.151,-0.1383,-0.1385,-0.1386,0,-0.1118,-0.1137,-0.1201,-0.1214,-0.1226,-0.1255,-0.1281,-0.1307,-0.1325,-0.1325,-0.1344,-0.1334,-0.1376,-0.1341,-0.14,-0.1366,-0.1384,-0.1391,-0.1394,-0.1399,-0.1359,-0.1426,-0.1534,-0.1546,-0.1403,-0.1402,-0.14,0,-0.1187,-0.123,-0.1274,-0.1283,-0.1298,-0.132,-0.1328,-0.1344,-0.1362,-0.1385,-0.1398,-0.1427,-0.1443,-0.1468,-0.1467,-0.1441,-0.1528,-0.1492,-0.1533,-0.1533,-0.1553,-0.1552,-0.1667,-0.1562,-0.1562,-0.1562,-0.1562,0,-0.1272,-0.1313,-0.1305,-0.1332,-0.1378,-0.1368,-0.1415,-0.1421,-0.1435,-0.1466,-0.145,-0.148,-0.1476,-0.1507,-0.1507,-0.1558,-0.1565,-0.1569,-0.1569,-0.1571,-0.1571,-0.1584,-0.158,-0.1565,-0.1564,-0.1564,-0.1563,0,-0.1357,-0.1353,-0.14,-0.141,-0.1414,-0.1447,-0.1458,-0.1485,-0.1487,-0.1526,-0.1535,-0.1539,-0.1575,-0.1576,-0.1618,-0.1619,-0.1681,-0.1674,-0.1674,-0.1673,-0.1714,-0.1711,-0.1843,-0.186,-0.1743,-0.1744,-0.1745,0,-0.1412,-0.1442,-0.1455,-0.1473,-0.1482,-0.1511,-0.1529,-0.1522,-0.1541,-0.1565,-0.159,-0.1624,-0.165,-0.1709,-0.1718,-0.1751,-0.1746,-0.179,-0.1751,-0.1753,-0.1749,-0.1748,-0.1752,-0.1798,-0.18,-0.1801,-0.1801,0,-0.1511,-0.1508,-0.1532,-0.1557,-0.1578,-0.1597,-0.1615,-0.1632,-0.1627,-0.1651,-0.1685,-0.1706,-0.1748,-0.1783,-0.1815,-0.1827,-0.1815,-0.1813,-0.1825,-0.1828,-0.1828,-0.1831,-0.1696,-0.1811,-0.181,-0.1809,-0.1809,-0.1808,-0.1584,-0.1611,-0.1624,-0.1653,-0.1665,-0.1682,-0.1709,-0.1714,-0.1741,-0.1773,-0.1768,-0.1808,-0.1828,-0.1868,-0.1883,-0.1916,-0.1902,-0.1918,-0.1922,-0.1927,-0.1932,-0.1821,-0.1922,-0.1922,-0.1922,-0.1921,-0.1921,0,-0.1684,-0.1691,-0.1717,-0.1742,-0.1765,-0.1748,-0.1768,-0.179,-0.1824,-0.1842,-0.1868,-0.191,-0.1943,-0.1955,-0.1989,-0.2014,-0.2009,-0.2023,-0.2022,-0.2026,-0.1942,-0.1929,-0.2026,-0.2026,-0.2026,-0.2026,-0.2026,-0.2026,-0.1739,-0.1783,-0.1782,-0.1833,-0.1841,-0.1878,-0.1891,-0.1908,-0.1922,-0.1968,-0.1995,-0.2001,-0.2018,-0.2053,-0.2085,-0.2088,-0.2102,-0.2118,-0.2119,-0.2042,-0.2031,-0.2021,-0.2009,-0.2121,-0.2121,-0.22,-0.2201,-0.2202]}]]